LARES

Last updated on Mon Nov 03 2025 00:03:54 GMT+0000 (Coordinated Universal Time)

1 38077U 12006A 25306.45890529 -.00000035 00000+0 19673-4 0 9990 2 38077 69.4897 319.5203 0011400 259.0154 100.9590 12.54931973628627
UTC large
Height (km)
Speed (km/s)
/
Latitude / Longitude
Inclination (degrees)
Orbital Period (minutes)
Azimuth
Elevation
Range (km)
Doppler Factor

Next 0 passes for location: London (51.5072 / 0.1276)

Sorry there are no passes over London.